Tracking 32523 objects as of 14-Dec-2025
HD Live streaming from Space Station
objects crossing your sky now

DELTA 1 DEB

Track DELTA 1 DEB now!
10-day predictions


NORAD ID: 7838
Int'l Code: 1972-058J
Perigee: 674.5 km
Apogee: 1,112.3 km
Inclination: 98.1 °
Period: 102.7 minutes
Semi major axis: 7264 km
RCS: 0.2743 m2 (medium)
Launch date: July 23, 1972
Source: United States (US)
Launch site: AIR FORCE WESTERN TEST RANGE (AFWTR)

Note: This is SATELLITE DEBRIS
Your satellite tracking list
Your tracking list is empty




NASA's NSSDC Master Catalog

Two Line Element Set (TLE):
1 07838U 72058J   25347.59566645  .00001158  00000-0  52677-3 0  9990
2 07838  98.1201  99.4693 0301359 298.6230  58.4931 14.02172932544015
Source of the keplerian elements: AFSPC